Powrót do katalogu

THORAD AGENA D DEB

AktywnyPO
NORAD 5060·DEBRIS·🇺🇸 United States

Wystrzelony Apr 8, 1970 z Vandenberg Space Force Base

Loading…

Następne Przeloty (najbliższe 24 godziny)

TLE

ŚwieżeSource: Space-Track

Epoka: Sep 14, 2026, 06:15 UTC

1 05060U 70025JE  26257.26042897  .00000547  00000-0  26616-3 0  9995
2 05060  99.9854 359.2607 0142885 262.1030  96.3903 14.18020345890185

Śledź THORAD AGENA D DEB w czasie rzeczywistym z AllMySat

Download on the App Store